FW9372 Weather Reports


time (UTC)temp
C
wind
direction
speed
KPH
gust
KPH
rain 1hr
cm
rain 24hr
cm
rain mn
cm
humidity
%
barometer
mb
20260504044605 10 0 0.0 0.0 0.03 0.05 0.05 88 1011.0
20260504043059 10 0 0.0 0.0 0.00 0.03 0.03 85 1011.1
20260504041557 10 0 0.0 0.0 0.00 0.03 0.03 84 1011.6
20260504040107 9 0 0.0 0.0 0.00 0.03 0.03 83 1011.2
20260504034625 10 0 0.0 0.0 0.00 0.03 0.03 82 1010.7
20260504033056 9 0 0.0 0.0 0.00 0.03 0.03 82 1011.0
20260504031557 9 0 0.0 0.0 0.00 0.03 0.03 82 1011.3
20260504030120 9 0 0.0 0.0 0.00 0.03 0.03 82 1011.3
20260504024601 9 0 0.0 0.0 0.00 0.03 0.03 81 1011.6
20260504023102 9 0 0.0 0.0 0.00 0.03 0.03 80 1011.6
20260504021558 10 0 0.0 0.0 0.00 0.03 0.03 77 1011.8
20260504020107 10 0 0.0 0.0 0.00 0.03 0.03 76 1011.7
20260504014604 10 0 0.0 0.0 0.00 0.03 0.03 73 1011.8
20260504013058 11 0 0.0 0.0 0.00 0.03 0.03 72 1011.8
20260504011556 12 0 0.0 0.0 0.00 0.03 0.03 68 1011.8
20260504010058 13 0 0.0 0.0 0.00 0.03 0.03 64 1011.7
20260504004558 14 0 0.0 0.0 0.00 0.03 0.03 60 1011.4
20260504003100 15 0 0.0 0.0 0.00 0.03 0.03 53 1010.9
20260504001606 16 0 0.0 0.0 0.00 0.03 0.03 50 1010.9
20260504000104 17 0 0.0 1.6 0.00 0.03 0.03 48 1011.0
20260503234602 17 197 0.0 16.1 0.00 0.03 0.03 47 1011.0
20260503233102 17 0 0.0 12.9 0.00 0.03 0.03 46 1011.2
20260503231557 18 221 1.6 19.3 0.00 0.03 0.03 45 1011.2
20260503230056 18 229 1.6 16.1 0.00 0.03 0.03 46 1011.4
20260503224557 18 255 1.6 14.5 0.00 0.03 0.03 46 1011.5
20260503223058 18 278 1.6 19.3 0.00 0.03 0.03 46 1011.9
20260503221559 18 0 0.0 12.9 0.00 0.03 0.03 45 1012.2
20260503220055 18 0 4.8 20.9 0.00 0.03 0.03 44 1012.4
20260503214602 18 0 4.8 19.3 0.00 0.03 0.03 45 1012.7
20260503213054 18 217 3.2 20.9 0.00 0.03 0.03 45 1013.0
20260503211556 18 259 3.2 20.9 0.00 0.03 0.03 46 1013.6
20260503210054 18 271 4.8 22.5 0.00 0.03 0.03 47 1013.3
20260503204559 18 228 1.6 17.7 0.00 0.03 0.03 47 1013.6
20260503203054 17 217 4.8 22.5 0.00 0.03 0.03 46 1014.0
20260503201557 17 246 1.6 20.9 0.00 0.03 0.03 44 1014.3
20260503200101 17 214 8.0 27.4 0.00 0.03 0.03 44 1014.7
20260503194600 17 0 0.0 20.9 0.00 0.03 0.03 46 1015.0
20260503193111 17 274 1.6 20.9 0.00 0.03 0.03 45 1015.2
20260503191559 17 0 0.0 16.1 0.00 0.03 0.03 45 1015.7
20260503190109 16 245 1.6 20.9 0.00 0.03 0.03 46 1015.9
20260503184601 17 226 6.4 16.1 0.00 0.03 0.03 45 1016.2
20260503183110 16 227 4.8 20.9 0.00 0.03 0.03 44 1016.3
20260503181558 16 212 3.2 17.7 0.00 0.03 0.03 44 1016.6
20260503174558 16 252 3.2 16.1 0.00 0.03 0.03 46 1017.1
20260503173112 16 221 0.0 11.3 0.00 0.03 0.03 48 1017.3
20260503171558 15 0 0.0 11.3 0.00 0.03 0.03 42 1017.7
20260503150111 13 0 0.0 6.4 0.00 0.03 0.03 55 1018.8
20260503140119 10 0 0.0 1.6 0.03 0.03 0.03 76 1018.8
20260503130104 3 0 0.0 0.0 0.00 0.00 0.00 97 1018.9
20260503110104 -1 0 0.0 0.0 0.00 0.00 0.00 96 1018.3
20260503100107 -1 0 0.0 0.0 0.00 0.00 0.00 95 1018.2
20260503081611 -1 0 0.0 0.0 0.00 0.00 0.00 95 1018.0